Regional Weather Roundup
Issued by NWS

Home | Current Version | Previous Version | Graphics & Text | Print | Product List | Glossary On
Versions: 1 2 3 4 5 6 7 8 9 10 11 12 13 14 15 16 17 18 19 20 21 22 23 24 25 26 27 28 29 30 31 32 33 34 35 36 37 38 39 40 41 42 43 44 45 46 47 48 49 50
000
ASUS43 KLOT 250908
RWRIL

ILLINOIS REGIONAL WEATHER ROUNDUP
NATIONAL WEATHER SERVICE CHICAGO/ROMEOVILLE IL
400 AM CDT SUN SEP 25 2016

NOTE: "FAIR" INDICATES FEW OR NO CLOUDS BELOW 12,000 FEET WITH NO
SIGNIFICANT WEATHER AND/OR OBSTRUCTIONS TO VISIBILITY.

* THESE STATIONS ARE NOT UNDER NWS QUALITY CONTROL. THEY ALSO MAY NOT
  REPORT WEATHER SUCH AS PRECIPITATION OR FOG.

ILZ001-002-007-009-015-016-024-251000-
NORTHWEST ILLINOIS

CITY           SKY/WX    TMP DP  RH WIND       PRES   REMARKS
MOLINE         MOCLDY    66  64  93 E6        30.02F FOG
STERLING*      CLOUDY    68  65  90 SE7       30.06F
SAVANNA*       MOCLDY    67  64  91 S6        30.04S
$$

ILZ003-004-008-010-011-017-018-251000-
NORTH CENTRAL ILLINOIS

CITY           SKY/WX    TMP DP  RH WIND       PRES   REMARKS
ROCKFORD       MOCLDY    66  63  90 SE7       30.08F
FREEPORT*      CLOUDY    64  62  96 SE9       30.07F FOG
ROCHELLE*      PTCLDY    66  64  92 SE8       30.08F
DE KALB*       PTCLDY    66  64  93 SE12      30.10F
$$

ILZ005-006-012>014-019>023-251000-
NORTHEAST ILLINOIS

CITY           SKY/WX    TMP DP  RH WIND       PRES   REMARKS
CHICAGO-OHARE  PTCLDY    66  61  84 SE7       30.11R
CHICAGO-MIDWAY PTCLDY    68  59  73 SE9       30.11S
AURORA         PTCLDY    67  63  87 SE8       30.09F
LANSING*       CLEAR     64  61  90 SE7       30.12S
JOLIET*        CLEAR     67  63  87 SE6       30.11S
WAUKEGAN       CLEAR     66  63  90 SE8       30.10F
DUPAGE AIRPORT PTCLDY    66  61  84 SE6       30.10F
KANKAKEE*      CLEAR     64  62  91 E8        30.11F
WHEELING       MOCLDY    64  61  90 SE3       30.12S
MORRIS*        CLEAR     66  64  91 SE5       30.08F
ROMEOVILLE*    PTCLDY    65  63  92 SE6       30.10F
NORTHERLY ISL    N/A     67  60  78 SE9         N/A
$$

LMZ740>746-251000-
SOUTHERN LAKE MICHIGAN

STATION/POSITION SKY/WX   TEMP    WIND        PRES    VSBY  WAVE
                          AIR SEA DIR/SP/G                  HT/PER
                          (F)     (DEG/KT/KT) (MB)    (MI)  (FT/S)
SOUTHERN BUOY              67 72  130/ 17/ 21 1019.3F         3/ 4
WILMETTE HARBOR            68 66  170/ 12/ 17   N/A           4/ 4
HARRISON CRIB              69     150/ 17/ 19   N/A
BURNHAM HARBOR             66     150/  9/ 11   N/A
CALUMET HARBOR             67     140/  6/  8 1019.3F
BURNS HARBOR               66     140/ 13/ 19 1020.3F
MICHIGAN CITY              64     120/ 11/ 13   N/A
MICHIGAN CITY 6N           64 68  150/ 12/ 16   N/A           1/ 2
ST. JOSEPH                 63 68  130/ 12/ 16 1020.4F         1/ 2
$$

ILZ025>027-034>036-040-047-049-050-058-095>099-251000-
WEST-CENTRAL ILLINOIS

CITY           SKY/WX    TMP DP  RH WIND       PRES   REMARKS
QUINCY         CLOUDY    71  66  84 SE7       30.02F
GALESBURG*     CLOUDY    67  64  92 MISG      30.04S
MACOMB*        PTCLDY    67  66  96 S6        30.05S
JACKSONVILLE*  CLEAR     71  67  85 SE7       30.05S
PITTSFIELD*    CLEAR     69  67  94 CALM      30.05S
$$

ILZ028>032-037-038-041>044-048-051>054-059>061-251000-
CENTRAL ILLINOIS

CITY           SKY/WX    TMP DP  RH WIND       PRES   REMARKS
PONTIAC        CLEAR     67  67 100 SE8       30.09F FOG
BLOOMINGTON    CLEAR     69  66  90 SE8       30.08F
DECATUR        CLEAR     66  64  93 E5        30.07F FOG
PEORIA         CLEAR     72  68  87 SE8       30.05F
LACON*         CLEAR     66  64  94 CALM      30.05F FOG
SPRINGFIELD    CLEAR     69  64  84 E6        30.06S
TAYLORVILLE    CLEAR     68  65  91 CALM      30.06F
$$

ILZ033-039-045-046-055>057-062-063-251000-
EAST-CENTRAL ILLINOIS

CITY           SKY/WX    TMP DP  RH WIND       PRES   REMARKS
CHAMPAIGN      CLEAR     66  64  93 E7        30.09F FOG
RANTOUL*       CLEAR     67  66  96 E3        30.10F FOG
MATTOON        CLEAR     69  66  90 SE6       30.07F FOG
PARIS*         CLEAR     67  66  99 CALM      30.10S FOG
$$

ILZ079-100>102-251000-
SOUTHWEST ILLINOIS

CITY           SKY/WX    TMP DP  RH WIND       PRES   REMARKS
ALTON          CLEAR     66  66  99 CALM      30.05F FOG
BELLEVILLE     CLEAR     68  68 100 N2        30.04S
CAHOKIA*       CLEAR     69  66  90 CALM      30.04F FOG
SPARTA*        CLEAR     70  68  95 SE3       30.06S
$$

ILZ064>066-069>071-074>076-080>082-084>086-088>090-092>094-251000-
SOUTH-CENTRAL ILLINOIS

CITY           SKY/WX    TMP DP  RH WIND       PRES   REMARKS
CARBONDALE     FOG       68  68 100 CALM      30.06S VSB 1/4
CAIRO*         CLEAR     67  67  99 CALM      30.05F
EFFINGHAM*     CLEAR     67  67 100 CALM      30.09S FOG
MARION         CLEAR     72  72 100 CALM      30.07S
MT. VERNON     CLEAR     64  61  88 CALM      30.07S
CENTRALIA*     CLEAR     67  66  99 CALM      30.05F FOG
SALEM*         CLEAR     70  66  88 CALM      30.06F
METROPOLIS*    CLEAR     68  67  98 CALM      30.07S FOG
$$

ILZ067-068-072-073-078-083-087-091-251000-
SOUTHEAST ILLINOIS

CITY           SKY/WX    TMP DP  RH WIND       PRES   REMARKS
LAWRENCEVILLE  CLEAR     67  65  93 NE3       30.09S FOG
FLORA*         CLEAR     68  66  94 CALM      30.07S
FAIRFIELD*       N/A     67  66  98 CALM      30.06S
HARRISBURG*    CLEAR     67  67 100 CALM      30.07S FOG
ROBINSON*        N/A     62  62 100 CALM      30.10S FOG
CARMI*         CLEAR     64  64 100 CALM      30.07R FOG
$$

ABBREVIATIONS USED IN REMARKS
   TC - TEMPERATURE IN CELSIUS
  WCI - WIND CHILL INDEX
   HX - HEAT INDEX
  VSB - VISIBILITY
$$





USA.gov is the U.S. government's official web portal to all federal, state and local government web resources and services.